Location: Pallagorio
(39.3000°N, 16.9000°E)
Time: 02:05:22
(UTC+00:00)

Cosmos 2292 Rocket - Pass Details

Date: 24 January 2021
Orbit: 380 x 1449 km, 83.0° (Epoch: 08 March)

Event Time Altitude Azimuth Distance (km) Brightness Sun altitude
Rises 17:38:52 0° 167° (SSE) 3,759 7.5 -18.4°
Reaches altitude 10° 17:41:52 10° 160° (SSE) 2,627 6.7 -19.0°
Enters shadow 17:46:59 38° 101° (ESE) 1,151 4.4 -19.9°
